• Join FlightAware (Why Join?)
  • Login
  • US Flag 
10:55AM EDT


 

Airport Tracker/Info


-or-


 

Live Flight TrackerFlight Track Log ✈ CTL21 ✈ 25-Apr-2013 ✈ KAZO - KBKL

Flight Track Log - Related Links

Times and Time Zones

All times are in EDT time to prevent confusion due to time zone crossing. See the CTL21 flight status page for this flight to view local times or setup timezone preferences in your user account.

Time Position Orientation Groundspeed Altitude Reporting Facility
EDT Latitude Longitude Course Direction KTS MPH feet Rate Location/Type
05:08PM 42.1708 -85.4706 118° Southeast 156 180 4,900  Level Chicago Center
05:09PM 42.1517 -85.4197 117° Southeast 154 177 5,900 900 Climbing Chicago Center
05:10PM 42.1303 -85.3717 121° Southeast 151 174 6,800 780 Climbing Chicago Center
05:11PM 42.0816 -85.1955 117° Southeast  Level FlightAware Approximate
05:11PM 42.1117 -85.3203 116° Southeast 151 174 7,600  Level Chicago Center
05:12PM 42.0587 -85.1347 117° Southeast  Level FlightAware Approximate
05:12PM 42.0906 -85.2686 119° Southeast 155 178 8,300  Level Chicago Center
05:13PM 42.0706 -85.2156 117° Southeast 157 181 9,000 360 Climbing Chicago Center
05:14PM 42.0458 -85.1556 119° Southeast 174 200 9,100  Climbing Chicago Center
05:15PM 42.0147 -85.0767 118° Southeast 193 222 9,000  Descending Chicago Center
05:16PM 41.9917 -85.0125 116° Southeast 192 221 9,100  Climbing Chicago Center
05:17PM 41.9658 -84.9489 119° Southeast 192 221 9,000 -60 Descending Chicago Center
05:18PM 41.9392 -84.8856 119° Southeast 194 223 9,000  Level Chicago Center
05:19PM 41.9147 -84.8189 116° Southeast 197 227 9,000  Level Chicago Center
05:21PM 41.9017 -84.7287 101° East  Level FlightAware Approximate
05:21PM 41.8589 -84.6794 101° East 193 222 9,000  Level Chicago Center
05:22PM 41.8339 -84.6144 117° Southeast 195 224 9,000  Level Chicago Center
05:23PM 41.8072 -84.5497 119° Southeast 197 227 9,000  Level Chicago Center
05:24PM 41.7819 -84.4858 118° Southeast 195 224 9,000  Level Chicago Center
05:25PM 41.7564 -84.4222 118° Southeast 194 223 9,100  Climbing Chicago Center
05:26PM 41.7308 -84.3597 119° Southeast 192 221 9,000 -60 Descending Chicago Center
05:27PM 41.7031 -84.2833 116° Southeast 191 220 9,000  Level Chicago Center
05:28PM 41.6806 -84.2200 115° Southeast 190 219 9,000  Level Chicago Center
05:30PM 41.6703 -84.1497 101° East 192 221 9,000  Level Chicago Center